ハインズ彗星

C/2017 T1 ( Heinze )

English version
Home page
Updated on February 13, 2018

---------------------------------------------------------------------

・ プロフィール

発見日 2017年10月2日
発見光度 18.2等
発見者 Aren Heinze (Asteroid Terrestrial-impact Last Alert System (ATLAS) search program)

・ 写真集

・ 軌道要素

Epoch 2018 Feb. 11.0 TT = JDT 2458160.5
T 2018 Feb. 21.71183 TT                                 MPCW
q   0.5806646            (2000.0)            P               Q
z  -0.0001173      Peri.   96.91869     +0.14111463     +0.19774442
                   Node   102.31600     -0.47693146     -0.84506938
e   1.0000681      Incl.   96.83470     +0.86753850     -0.49674429
From 883 observations 2017 Sept. 28-2018 Jan. 25, mean residual 0".6.
     Nongravitational parameters A1 = +5.13, A2 = -1.9262.

・ 星図

・ 光度変化

        m1 = 13.0 + 5 logΔ + 7.5 log r

---------------------------------------------------------------------

軌道要素はM.P.E.C. 2018-B155に掲載されたものです。
星図はステラナビゲータ Ver.10 (アストロアーツ) で作成したものです。
光度グラフはComet for Windowsで作成したものです。

---------------------------------------------------------------------

Copyright(C) Seiichi Yoshida (comet@aerith.net). All rights reserved.